Location: Cactus School
(34.5700°N, 118.0931°W)
Time: 07:47:04
(UTC-07:00)

Vanguard 2 - Pass Details

Date: 24 April 2024
Orbit: 553 x 2914 km, 32.9° (Epoch: 22 May)

Event Time Altitude Azimuth Distance (km) Brightness Sun altitude
Exits shadow 23:22:19 16° 88° (E) 4,757 11.3 -37.7°
Drops below altitude 10° 23:24:58 10° 82° (E) 5,375 11.6 -37.9°
Sets 23:30:12 0° 75° (ENE) 6,607 12.2 -38.4°
